GW3922 Weather Reports


Display with metric or nautical units.
time (UTC)temp
F
wind
direction
speed
MPH
gust
MPH
rain 1hr
in
rain 24hr
in
rain mn
in
humidity
%
barometer
mb
20260906023022 73 160 0.0 1.0 0.00 0.05 0.05 96 1013.3
20260906021535 73 179 2.0 3.0 0.00 0.05 0.05 96 1013.1
20260906020030 73 55 0.0 3.0 0.00 0.05 0.05 96 1013.1
20260906014537 74 123 0.0 1.0 0.00 0.05 0.05 96 1013.0
20260906013043 74 165 1.0 2.0 0.00 0.05 0.05 95 1012.9
20260906011526 75 80 1.0 2.0 0.00 0.05 0.05 95 1012.8
20260906010028 75 193 2.0 3.0 0.00 0.05 0.05 95 1012.6
20260906004530 75 77 0.0 2.0 0.00 0.05 0.05 95 1012.5
20260906003032 75 32 0.0 3.0 0.00 0.05 0.05 95 1012.4
20260906001535 76 82 0.0 0.0 0.00 0.05 0.05 94 1012.1
20260906000026 76 80 0.0 2.0 0.00 0.05 0.05 93 1012.4
20260905234507 77 137 0.0 1.0 0.00 0.05 0.05 92 1012.0
20260905233019 77 137 0.0 0.0 0.00 0.05 0.05 92 1012.0
20260905231512 77 138 0.0 1.0 0.00 0.05 0.05 91 1012.0
20260905230019 77 138 0.0 1.0 0.00 0.05 0.05 90 1011.7
20260905224529 78 138 0.0 1.0 0.00 0.05 0.05 88 1011.5
20260905223008 78 138 0.0 2.0 0.00 0.05 0.05 87 1011.7
20260905221514 78 96 0.0 2.0 0.00 0.05 0.05 84 1011.7
20260905220019 79 36 0.0 1.0 0.00 0.05 0.05 83 1011.7
20260905214518 80 46 0.0 2.0 0.00 0.05 0.05 82 1011.8
20260905213027 79 111 0.0 1.0 0.00 0.05 0.05 83 1012.4
20260905211504 79 352 1.0 2.0 0.00 0.05 0.05 81 1012.6
20260905210009 78 23 2.0 4.0 0.00 0.05 0.05 83 1012.9
20260905204523 77 39 1.0 4.0 0.00 0.05 0.05 85 1013.0
20260905203029 76 129 0.0 3.0 0.00 0.05 0.05 88 1013.3
20260905201532 75 132 0.0 5.0 0.00 0.05 0.05 88 1013.5
20260905200009 75 147 0.0 4.0 0.00 0.05 0.05 90 1013.3
20260905194518 75 242 1.0 4.0 0.04 0.05 0.05 92 1013.1
20260905193026 75 100 0.0 5.0 0.05 0.05 0.05 93 1013.2
20260905191538 75 186 2.0 5.0 0.05 0.05 0.05 92 1013.2
20260905190044 77 272 0.0 6.0 0.05 0.05 0.05 88 1013.4
20260905184521 81 189 8.0 22.0 0.01 0.01 0.01 76 1014.9
20260905183023 86 118 0.0 0.0 0.00 0.00 0.00 75 1013.5
20260905181523 90 166 0.0 4.0 0.00 0.00 0.00 69 1012.7
20260905180029 94 56 2.0 8.0 0.00 0.00 0.00 57 1012.9
20260905174534 94 66 0.0 3.0 0.00 0.00 0.00 58 1013.3
20260905173034 93 105 0.0 3.0 0.00 0.00 0.00 56 1013.5
20260905171522 92 139 0.0 3.0 0.00 0.00 0.00 57 1013.7
20260905170029 92 147 0.0 2.0 0.00 0.00 0.00 66 1013.6
20260905164532 92 145 0.0 1.0 0.00 0.00 0.00 64 1013.9
20260905163034 91 226 3.0 4.0 0.00 0.00 0.00 63 1014.2
20260905161533 91 52 2.0 4.0 0.00 0.00 0.00 67 1014.3
20260905160029 89 169 0.0 2.0 0.00 0.00 0.00 69 1014.4
20260905154532 89 110 0.0 3.0 0.00 0.00 0.00 70 1014.5
20260905153042 89 232 1.0 4.0 0.00 0.00 0.00 72 1014.5
20260905151532 88 341 1.0 8.0 0.00 0.00 0.00 73 1014.2
20260905150036 86 355 1.0 5.0 0.00 0.00 0.00 77 1014.4
20260905144514 85 342 1.0 4.0 0.00 0.00 0.00 80 1014.5
20260905143007 84 338 0.0 3.0 0.00 0.00 0.00 81 1014.6
20260905141506 84 326 0.0 2.0 0.00 0.00 0.00 78 1014.4
20260905140006 83 332 0.0 3.0 0.00 0.00 0.00 80 1014.6
20260905134507 81 3 1.0 3.0 0.00 0.00 0.00 85 1014.6
20260905133006 81 47 0.0 0.0 0.00 0.00 0.00 86 1014.8
20260905131508 80 49 0.0 0.0 0.00 0.00 0.00 90 1014.8
20260905130011 78 49 0.0 0.0 0.00 0.00 0.00 92 1015.0
20260905124521 76 49 0.0 0.0 0.00 0.00 0.00 95 1015.3
20260905123012 74 49 0.0 1.0 0.00 0.00 0.00 98 1015.2
20260905121515 72 51 0.0 1.0 0.00 0.00 0.00 98 1015.1
20260905120009 72 51 0.0 1.0 0.00 0.00 0.00 97 1014.9
20260905114511 71 50 0.0 1.0 0.00 0.00 0.00 97 1014.8
20260905113014 71 51 1.0 2.0 0.00 0.00 0.00 97 1014.7
20260905111510 71 51 0.0 1.0 0.00 0.00 0.00 97 1014.4
20260905110008 71 51 0.0 1.0 0.00 0.00 0.00 97 1014.2
20260905104511 72 51 0.0 0.0 0.00 0.00 0.00 97 1013.9
20260905103012 72 51 0.0 1.0 0.00 0.00 0.00 97 1013.7
20260905101514 72 56 0.0 1.0 0.00 0.00 0.00 97 1013.6
20260905100024 72 56 1.0 2.0 0.00 0.00 0.00 97 1013.5
20260905094514 72 56 1.0 1.0 0.00 0.00 0.00 97 1013.4
20260905093019 72 56 0.0 2.0 0.00 0.00 0.00 97 1013.5
20260905091517 73 57 0.0 0.0 0.00 0.00 0.00 97 1013.5
20260905090018 73 50 0.0 2.0 0.00 0.00 0.00 97 1013.6
20260905084516 73 50 1.0 1.0 0.00 0.00 0.00 97 1013.9
20260905083033 73 50 0.0 1.0 0.00 0.00 0.00 97 1013.9
20260905081518 73 51 0.0 1.0 0.00 0.00 0.00 97 1014.1
20260905080020 73 39 0.0 2.0 0.00 0.00 0.00 97 1014.3
20260905074525 74 36 0.0 2.0 0.00 0.00 0.00 97 1014.4
20260905073027 74 58 1.0 3.0 0.00 0.00 0.00 97 1014.5
20260905071528 74 69 0.0 2.0 0.00 0.00 0.00 97 1014.5
20260905070025 74 69 0.0 1.0 0.00 0.00 0.00 97 1014.7
20260905064528 74 70 0.0 0.0 0.00 0.00 0.00 97 1014.9
20260905063026 74 69 0.0 2.0 0.00 0.00 0.00 97 1015.0
20260905061525 75 72 0.0 1.0 0.00 0.00 0.00 97 1015.3
20260905060033 75 55 0.0 0.0 0.00 0.00 0.00 97 1015.3
20260905054536 75 46 2.0 4.0 0.00 0.00 0.00 96 1015.3
20260905053029 75 50 0.0 2.0 0.00 0.00 0.00 96 1015.5
20260905051531 75 53 0.0 2.0 0.00 0.00 0.00 96 1015.4
20260905050013 75 50 0.0 1.0 0.00 0.00 0.00 96 1015.3
20260905044515 75 50 0.0 1.0 0.00 0.00 0.00 96 1015.5
20260905043004 76 39 1.0 2.0 0.00 0.00 0.00 96 1015.5
20260905041504 76 37 2.0 3.0 0.00 0.00 0.00 96 1015.5
20260905040007 76 87 0.0 2.0 0.00 0.00 0.00 96 1015.4
20260905034511 76 56 0.0 2.0 0.00 0.00 0.00 96 1015.3
20260905033016 76 53 0.0 2.0 0.00 0.00 0.00 95 1015.2
20260905031521 77 55 0.0 1.0 0.00 0.00 0.00 95 1015.3
20260905030005 77 60 0.0 2.0 0.00 0.00 0.00 95 1015.4
20260905024507 77 49 0.0 2.0 0.00 0.00 0.00 95 1015.4